User: anonymous   Login
Location: Unspecified
(0.0000°N, 0.0000°E)
Time: 11:13:43
(UTC+00:00)
Language:

FO-29 - Orbit

View from above orbital plane
View from above orbital plane
View from above satellite
View from above satellite

Ground track
Ground track

The orbit data is extracted from the following two-line orbital elements,

1 24278U 96046B   18347.91486951 -.00000013 +00000-0 +23049-4 0  9991
2 24278 098.5136 161.8956 0350436 004.7332 355.6983 13.53088064102294
Epoch (UTC): 13 December 2018 21:57:24
Eccentricity: 0.0350436
inclination: 98.5136°
perigee height: 800 km
apogee height: 1321 km
right ascension of ascending node: 161.8956°
argument of perigee: 4.7332°
revolutions per day: 13.53088064
mean anomaly at epoch: 355.6983°
orbit number at epoch: 10229

The dashed part of the orbit path shows where the satellite is in the earth's shadow,  

DLR